DB0SVX Weather Reports


Display with metric or nautical units.
time (UTC)temp
F
wind
direction
speed
MPH
gust
MPH
rain 1hr
in
rain 24hr
in
rain mn
in
humidity
%
barometer
mb
20260509112522 87 270 0.0 0.0 0.00 0.00 0.00 26 1014.9
20260509111022 89 247 4.0 0.0 0.00 0.00 0.00 25 1014.7
20260509105522 88 112 0.0 0.0 0.00 0.00 0.00 26 1014.7
20260509104022 84 135 0.0 0.0 0.00 0.00 0.00 28 1015.0
20260509102522 83 0 3.0 0.0 0.00 0.00 0.00 28 1015.2
20260509101022 85 202 0.0 0.0 0.00 0.00 0.00 29 1015.4
20260509095522 81 225 0.0 0.0 0.00 0.00 0.00 30 1015.5
20260509094022 84 270 2.0 0.0 0.00 0.00 0.00 30 1015.5
20260509092522 81 225 2.0 0.0 0.00 0.00 0.00 32 1015.5
20260509091022 78 270 0.0 0.0 0.00 0.00 0.00 32 1015.5
20260509085522 79 270 0.0 0.0 0.00 0.00 0.00 20 1015.5
20260509084022 74 135 2.0 0.0 0.00 0.00 0.00 35 1015.5
20260509082522 72 112 0.0 0.0 0.00 0.00 0.00 35 1015.5
20260509081022 69 225 1.0 0.0 0.00 0.00 0.00 35 1015.5
20260509075522 61 225 0.0 0.0 0.00 0.00 0.00 39 1015.5
20260509074022 61 337 4.0 0.0 0.00 0.00 0.00 38 1015.5
20260509072522 60 337 0.0 0.0 0.00 0.00 0.00 38 1015.5
20260509071022 60 0 0.0 0.0 0.00 0.00 0.00 37 1015.5
20260509065522 58 22 0.0 0.0 0.00 0.00 0.00 37 1015.5
20260509064022 59 247 0.0 0.0 0.00 0.00 0.00 35 1015.5
20260509062522 57 247 0.0 0.0 0.00 0.00 0.00 36 1015.5
20260509061023 56 270 0.0 0.0 0.00 0.00 0.00 35 1015.7
20260509055522 55 270 0.0 0.0 0.00 0.00 0.00 34 1015.5
20260509054022 53 112 0.0 0.0 0.00 0.00 0.00 34 1015.5
20260509052522 52 112 0.0 0.0 0.00 0.00 0.00 33 1015.5
20260509051022 51 112 0.0 0.0 0.00 0.00 0.00 33 1015.2
20260509045522 50 112 0.0 0.0 0.00 0.00 0.00 35 1015.2
20260509044022 50 112 0.0 0.0 0.00 0.00 0.00 36 1015.2
20260509042522 49 112 0.0 0.0 0.00 0.00 0.00 36 1015.2
20260509041022 49 112 0.0 0.0 0.00 0.00 0.00 36 1015.0
20260509035522 49 112 0.0 0.0 0.00 0.00 0.00 37 1015.0
20260509034022 49 112 0.0 0.0 0.00 0.00 0.00 36 1014.9
20260509032522 49 112 0.0 0.0 0.00 0.00 0.00 37 1014.7
20260509031022 49 112 0.0 0.0 0.00 0.00 0.00 37 1015.0
20260509025522 49 112 0.0 0.0 0.00 0.00 0.00 37 1014.9
20260509024022 49 112 0.0 0.0 0.00 0.00 0.00 37 1014.9
20260509022522 48 112 0.0 0.0 0.00 0.00 0.00 38 1014.7
20260509021022 48 112 0.0 0.0 0.00 0.00 0.00 39 1014.7
20260509015522 48 112 0.0 0.0 0.00 0.00 0.00 40 1014.7
20260509014022 48 112 0.0 0.0 0.00 0.00 0.00 39 1014.7
20260509012522 48 112 0.0 0.0 0.00 0.00 0.00 39 1014.7
20260509011022 48 112 0.0 0.0 0.00 0.00 0.00 40 1014.7
20260509005522 48 112 0.0 0.0 0.00 0.00 0.00 40 1014.7
20260509004022 48 112 0.0 0.0 0.00 0.00 0.00 41 1014.9
20260509002522 49 112 0.0 0.0 0.00 0.00 0.00 42 1014.7
20260509001022 49 112 0.0 0.0 0.00 0.00 0.00 42 1014.7
20260508235522 49 112 0.0 0.0 0.00 0.00 0.00 42 1014.5
20260508234022 49 112 0.0 0.0 0.00 0.00 0.00 43 1015.0
20260508232522 49 112 0.0 0.0 0.00 0.00 0.00 43 1015.2
20260508231022 49 112 0.0 0.0 0.00 0.00 0.00 45 1015.2
20260508225522 49 112 0.0 0.0 0.00 0.00 0.00 45 1015.4
20260508224022 50 112 0.0 0.0 0.00 0.00 0.00 45 1015.4
20260508222522 51 112 0.0 0.0 0.00 0.00 0.00 45 1015.2
20260508221022 51 135 2.0 0.0 0.00 0.00 0.00 45 1015.2
20260508215523 51 135 0.0 0.0 0.00 0.00 0.00 45 1015.2
20260508214022 51 135 0.0 0.0 0.00 0.00 0.00 46 1014.9
20260508212522 51 135 0.0 0.0 0.00 0.00 0.00 47 1014.7
20260508211022 51 135 0.0 0.0 0.00 0.00 0.00 47 1014.7
20260508205522 51 135 0.0 0.0 0.00 0.00 0.00 48 1014.7
20260508204022 52 135 0.0 0.0 0.00 0.00 0.00 48 1014.7
20260508202522 53 135 0.0 0.0 0.00 0.00 0.00 48 1014.7
20260508201022 54 135 0.0 0.0 0.00 0.00 0.00 48 1014.5
20260508195522 55 135 1.0 0.0 0.00 0.00 0.00 48 1014.4
20260508194022 55 112 3.0 0.0 0.00 0.00 0.00 48 1014.5
20260508192522 56 135 0.0 0.0 0.00 0.00 0.00 47 1014.0
20260508191022 57 112 7.0 0.0 0.00 0.00 0.00 47 1013.9
20260508185522 58 135 0.0 0.0 0.00 0.00 0.00 46 1013.7
20260508184022 59 135 0.0 0.0 0.00 0.00 0.00 46 1013.5
20260508182522 60 112 4.0 0.0 0.00 0.00 0.00 44 1013.2
20260508181022 62 157 0.0 0.0 0.00 0.00 0.00 43 1013.2
20260508175522 64 135 0.0 0.0 0.00 0.00 0.00 40 1012.9
20260508174022 68 112 4.0 0.0 0.00 0.00 0.00 36 1012.7
20260508172522 78 135 9.0 0.0 0.00 0.00 0.00 30 1012.7
20260508171022 81 135 4.0 0.0 0.00 0.00 0.00 29 1012.7
20260508165523 81 157 0.0 0.0 0.00 0.00 0.00 29 1012.7
20260508164022 82 90 5.0 0.0 0.00 0.00 0.00 28 1012.5
20260508162522 83 135 8.0 0.0 0.00 0.00 0.00 27 1012.5
20260508161022 84 112 3.0 0.0 0.00 0.00 0.00 28 1012.7
20260508155522 80 112 2.0 0.0 0.00 0.00 0.00 29 1012.7
20260508154022 85 135 3.0 0.0 0.00 0.00 0.00 27 1012.5
20260508152522 82 135 0.0 0.0 0.00 0.00 0.00 29 1012.7
20260508151022 72 135 0.0 0.0 0.00 0.00 0.00 35 1012.7
20260508145522 76 112 6.0 0.0 0.00 0.00 0.00 32 1013.0
20260508144022 76 112 3.0 0.0 0.00 0.00 0.00 31 1013.0
20260508142522 83 112 0.0 0.0 0.00 0.00 0.00 27 1013.0
20260508141022 82 157 2.0 0.0 0.00 0.00 0.00 28 1013.2
20260508135522 80 135 4.0 0.0 0.00 0.00 0.00 29 1013.4
20260508134022 81 225 7.0 0.0 0.00 0.00 0.00 29 1013.5
20260508132522 79 112 8.0 0.0 0.00 0.00 0.00 30 1013.7
20260508131022 77 0 3.0 0.0 0.00 0.00 0.00 31 1013.5
20260508125522 77 112 5.0 0.0 0.00 0.00 0.00 31 1013.7
20260508124022 78 202 2.0 0.0 0.00 0.00 0.00 31 1013.7
20260508122522 77 292 3.0 0.0 0.00 0.00 0.00 32 1013.7
20260508121022 78 112 3.0 0.0 0.00 0.00 0.00 31 1013.9
20260508115522 79 45 3.0 0.0 0.00 0.00 0.00 31 1014.0
20260508114022 78 157 2.0 0.0 0.00 0.00 0.00 32 1014.0